Dewpoint
49 47 48 48 46 46 47 46 42 42 41 42 42 42 43 46 47 41 36 37 39 46 49 44 48 49 50 49 53 52 43 39 37 37 36 37 37 35 38 36 40 47 47 52 62
48 47 44 44 45 45 44 42 41 41 41 41 41 42 42 42 40 37 36 51 49 46 45 44 42 44 45 46 47 48 41 40 38 38 38 37 35 35 34 37 39 44 51 59 62
44 43 45 42 45 45 44 42 41 41 41 42 42 41 43 43 36 30 47 45 45 46 44 43 42 42 42 43 44 43 42 40 40 40 39 38 35 35 36 37 34 39 50 59 61
43 43 42 45 44 42 42 42 43 42 42 42 42 43 44 41 25 30 48 42 40 37 38 39 41 40 39 39 42 39 42 43 40 41 40 39 38 34 34 35 35 39 52 59 59
43 46 45 45 44 42 43 44 44 43 43 43 42 41 40 36 33 34 36 37 37 34 34 37 39 38 36 37 39 40 38 43 44 45 43 39 40 38 36 36 39 40 53 59 60
42 42 43 44 44 45 44 43 43 43 43 42 42 43 39 31 32 33 33 37 35 34 33 33 41 36 36 36 36 38 40 40 43 43 43 42 41 41 39 45 44 44 50 57 59
46 47 46 45 44 44 44 44 43 42 42 42 42 42 38 33 34 35 35 35 35 35 34 33 35 39 38 35 37 38 39 37 41 43 45 43 41 40 40 47 47 46 49 55 58
42 42 43 44 45 44 44 43 41 42 40 38 39 37 31 36 37 37 36 35 36 37 36 35 38 37 41 37 40 35 37 37 37 39 45 46 38 39 42 45 45 48 50 52 56
43 43 43 44 44 44 43 41 40 39 39 34 36 37 28 35 31 34 37 34 36 37 36 37 38 38 40 38 33 34 26 29 32 38 40 44 39 38 41 43 44 48 50 52 55
43 43 43 44 43 43 42 40 38 34 31 35 36 32 30 26 31 32 33 36 34 34 35 34 35 34 36 34 26 25 26 23 25 31 39 40 40 39 40 42 42 47 50 52 54
40 43 42 43 43 44 39 33 27 24 31 29 28 29 28 29 31 29 28 31 33 31 24 29 27 27 33 33 30 27 23 22 26 30 38 38 36 39 39 40 41 46 49 51 53
41 43 44 43 44 43 38 32 36 37 30 29 28 30 31 33 29 24 30 27 26 22 24 25 23 24 30 33 33 33 25 24 26 32 38 36 37 37 39 38 41 43 48 50 52
43 44 44 43 44 38 38 36 41 41 29 25 24 25 27 32 24 23 29 28 26 23 21 20 16 23 28 32 32 34 28 25 26 32 36 35 34 37 40 39 39 43 43 49 51
43 44 43 44 34 39 33 39 40 41 22 7 12 25 27 21 22 28 30 28 28 24 23 21 19 19 23 26 32 28 31 26 26 31 30 35 24 34 36 38 39 43 45 47 51
43 43 43 44 38 34 35 39 39 34 1 9 16 23 21 21 21 29 35 31 28 26 25 17 17 18 18 23 29 31 34 31 31 28 31 32 30 24 33 34 37 40 45 45 46
43 43 43 40 40 38 38 34 31 15 -3 11 16 18 19 21 21 27 32 36 35 30 29 26 29 29 21 26 27 33 34 35 33 32 26 29 28 29 32 32 34 38 41 43 44
44 43 41 41 33 36 37 26 16 8 11 12 16 19 20 19 20 24 28 28 26 22 22 23 24 26 29 22 30 32 31 24 22 23 21 23 29 27 25 32 34 37 38 41 42
44 41 39 39 34 38 30 23 6 13 14 18 20 19 18 19 19 21 24 22 30 27 23 17 14 20 23 21 25 28 30 18 9 15 18 28 27 23 26 30 32 37 38 38 42
40 36 36 36 35 33 26 15 15 16 18 20 19 16 15 17 20 22 20 26 30 30 23 20 17 23 22 27 25 27 25 21 26 26 14 22 24 29 28 28 27 36 38 38 40
35 30 31 31 34 28 24 19 18 18 21 23 18 19 15 17 18 19 23 29 28 31 31 29 22 24 24 26 26 28 26 22 27 21 16 22 21 19 25 26 25 30 36 38 38
30 23 28 30 31 27 20 20 20 21 23 23 22 20 19 19 18 20 22 21 28 27 29 31 27 27 26 24 22 29 28 28 24 23 21 19 22 21 18 21 25 25 29 35 37
29 19 29 29 25 23 22 22 24 21 23 23 25 23 22 15 18 21 21 22 23 22 25 31 29 23 23 30 21 24 29 29 20 23 22 19 15 15 15 16 16 16 23 26 36
28 27 28 30 19 21 21 21 22 18 17 22 18 24 23 12 17 19 20 22 23 22 27 30 27 21 23 28 25 23 30 33 30 30 23 16 13 15 17 18 19 18 19 19 20
28 18 27 29 27 22 18 14 12 15 19 19 19 20 15 14 19 19 20 21 21 24 31 31 28 24 18 18 27 24 28 31 30 25 24 15 12 14 16 18 21 25 27 27 25
29 25 26 19 21 22 23 20 14 12 15 17 15 10 14 16 17 20 18 20 20 25 25 28 24 27 24 22 27 29 30 31 29 25 18 15 14 15 16 19 24 28 29 30 29
26 26 27 23 22 20 20 18 17 14 17 12 11 12 14 15 16 18 20 19 20 23 24 27 23 26 24 23 23 27 31 31 28 23 20 18 17 17 16 21 26 27 29 29 29
32 32 27 22 20 18 19 20 19 19 17 18 16 16 12 16 17 18 20 21 23 23 23 25 26 23 21 25 23 23 26 28 23 24 23 22 20 17 17 19 23 27 29 29 29
Wind_Speed
18 19 19 20 21 19 17 18 20 20 21 21 21 21 21 21 19 17 22 18 20 18 17 18 9 7 7 12 8 5 11 21 34 23 14 10 17 10 4 8 8 9 3 1 19
19 19 21 20 19 18 19 20 21 22 21 21 22 21 20 20 19 23 15 16 19 21 18 15 12 9 17 18 14 8 16 35 24 20 12 9 16 19 11 7 9 9 3 14 19
20 21 18 20 20 20 20 21 23 23 23 23 21 21 20 19 17 10 7 25 18 5 18 13 14 11 18 20 28 21 17 27 18 20 19 7 12 9 17 20 19 20 18 20 20
22 20 21 19 18 21 23 22 22 24 24 24 23 20 18 13 9 2 7 25 15 14 5 15 16 16 11 22 25 23 20 21 26 17 17 12 5 11 19 14 18 12 21 23 25
20 21 22 22 21 23 23 25 26 27 26 25 23 21 14 10 22 28 26 10 7 13 10 3 24 22 18 20 26 31 27 19 16 9 12 17 14 12 14 7 5 12 21 25 21
22 20 21 21 23 24 25 26 29 28 26 24 22 19 16 22 12 13 10 4 6 9 10 10 5 25 15 21 21 18 25 21 23 23 15 13 13 6 9 3 7 16 22 27 22
22 22 23 24 24 25 26 27 30 29 24 21 17 13 9 18 8 16 13 15 14 9 10 7 4 8 19 15 26 23 12 27 24 16 11 15 15 22 9 4 8 15 20 24 22
22 24 24 25 25 25 26 28 28 26 20 12 10 7 8 4 11 9 7 9 6 11 14 6 7 9 5 14 7 26 19 18 20 26 13 15 30 25 15 11 10 13 18 22 24
22 23 24 23 24 24 26 28 26 18 8 14 3 3 5 4 5 7 3 4 5 1 11 10 8 4 8 9 19 19 24 29 25 22 20 17 7 22 21 14 13 13 16 20 20
21 23 24 24 24 25 23 26 15 6 17 0 1 4 3 4 8 11 10 7 6 1 7 11 4 3 8 21 23 26 25 24 28 28 29 24 20 3 14 18 16 13 15 19 20
22 22 23 23 23 21 17 6 8 2 13 8 16 8 13 8 15 6 7 7 8 7 9 13 12 13 16 27 24 24 21 25 19 18 19 33 30 25 11 16 13 12 14 18 18
21 23 22 24 22 11 7 8 7 6 13 11 14 10 13 5 8 11 3 6 9 15 7 7 21 18 13 22 18 27 26 23 19 20 14 18 28 28 21 22 19 13 16 18 16
22 22 21 23 14 3 3 6 10 4 5 9 6 6 4 3 11 8 5 3 7 9 14 16 12 18 18 12 19 26 32 26 19 19 17 9 16 22 22 17 21 21 19 16 21
21 20 20 20 1 6 3 11 10 4 3 8 4 0 3 18 6 3 5 4 4 8 10 12 20 18 19 24 14 20 37 30 24 17 11 15 17 20 25 26 20 24 19 22 24
21 21 18 4 8 6 9 13 4 3 2 16 5 4 18 4 11 2 1 4 10 8 5 6 7 15 24 26 20 8 25 24 18 22 5 9 6 23 24 27 30 29 33 27 23
23 20 16 2 3 3 14 6 3 2 4 9 8 19 18 6 8 4 1 1 3 7 11 18 2 6 21 11 19 13 13 16 15 10 11 15 20 6 20 39 33 30 35 35 27
24 20 7 1 6 15 8 2 3 4 8 12 12 17 18 13 10 7 10 5 5 4 7 9 15 11 10 20 11 16 8 9 8 8 10 19 15 16 17 27 29 33 31 32 29
22 9 3 1 12 8 3 2 2 2 7 13 15 20 6 16 12 18 11 8 8 3 3 6 7 18 17 20 11 27 9 6 10 12 14 4 13 16 26 12 17 26 31 26 24
14 4 1 6 10 4 3 4 3 4 9 13 20 8 7 9 12 11 13 7 5 9 6 6 8 7 14 12 21 18 21 15 3 2 17 11 10 10 8 15 15 23 26 33 35
6 5 4 15 6 2 3 2 2 2 8 7 8 5 12 17 14 15 6 2 10 7 16 4 5 8 14 17 20 13 21 17 9 5 10 7 8 9 12 19 14 22 27 27 29
4 5 5 14 3 5 4 3 4 5 7 4 7 8 8 16 17 10 6 8 10 20 20 4 6 4 15 20 23 9 17 8 9 11 2 3 4 2 5 7 16 16 18 23 26
3 4 10 10 5 3 4 7 6 7 5 4 8 9 8 17 10 7 7 9 17 21 11 6 4 5 21 0 19 18 8 11 19 9 11 5 0 2 5 3 4 7 11 12 16
3 3 4 7 6 8 10 6 4 7 9 6 6 6 8 11 8 9 12 9 14 18 7 13 4 3 13 4 13 22 14 3 2 3 4 10 4 3 1 4 2 5 6 9 11
3 6 5 6 4 5 9 6 11 9 6 7 7 7 17 9 4 12 14 13 31 14 19 18 3 4 5 10 16 17 18 14 4 8 9 1 9 6 5 5 4 4 4 6 11
6 3 2 7 4 6 7 4 10 13 4 7 4 12 15 8 12 3 14 28 12 5 22 12 5 5 5 6 20 22 22 15 6 14 15 10 10 7 6 5 5 4 6 7 10
3 3 2 4 4 5 2 1 7 11 6 6 10 20 16 9 12 26 23 19 12 12 17 10 7 7 6 10 21 16 20 20 12 3 14 13 8 3 6 7 10 8 8 8 9
2 1 1 2 3 4 2 4 6 14 8 10 16 21 16 9 22 31 29 27 25 21 8 7 9 8 4 1 20 12 6 4 12 11 7 18 7 5 13 15 15 13 9 6 6
Wind_Direction
342 348 349 346 341 334 334 331 324 325 320 317 316 313 314 316 310 294 286 272 254 250 259 259 270 242 245 232 225 140 230 217 224 217 223 196 204 162 146 215 207 194 257 333 140
352 347 340 335 330 328 332 329 325 321 317 316 317 315 314 315 308 291 288 13 244 244 250 229 242 227 222 220 211 211 230 225 226 224 225 210 212 196 193 190 220 201 170 143 149
349 341 341 336 338 334 328 328 322 316 314 311 313 313 319 322 307 270 124 16 7 323 245 249 237 229 222 225 213 226 220 213 225 229 220 218 209 194 206 221 231 207 175 166 161
343 336 334 331 332 331 326 321 318 313 312 313 315 313 305 302 286 327 278 354 350 354 290 228 223 214 218 217 218 223 232 231 217 218 201 203 195 197 199 197 223 216 171 166 172
337 335 336 343 334 327 323 322 317 314 314 315 308 300 296 264 251 268 291 329 334 2 349 324 214 212 216 219 225 223 231 218 218 216 202 205 211 225 215 208 197 174 173 172 175
337 336 333 329 328 326 326 322 318 314 315 311 301 294 276 274 289 284 275 221 280 309 298 295 291 218 232 232 223 222 227 222 225 227 208 194 207 206 214 222 195 178 180 176 169
334 338 341 338 332 326 324 321 315 315 317 307 301 289 264 254 276 291 281 276 291 260 262 277 282 282 225 221 229 232 223 228 229 232 231 228 234 224 192 167 190 193 178 179 173
343 338 337 335 332 329 327 320 316 319 313 324 313 285 263 278 308 306 308 292 273 247 224 261 153 289 239 230 207 211 225 227 226 213 211 222 225 218 201 194 198 190 173 177 183
345 342 338 338 336 334 329 318 317 322 331 322 228 226 272 310 310 342 265 270 309 210 199 171 188 214 207 220 215 197 211 217 214 205 198 217 220 234 192 197 204 191 180 179 179
343 344 342 338 337 336 330 318 309 325 347 232 115 261 240 328 309 300 270 266 264 171 172 204 186 223 244 191 209 204 214 212 217 208 205 197 227 221 181 210 209 188 185 186 180
339 339 340 339 339 341 341 338 4 343 355 296 300 284 297 304 288 261 305 228 240 246 238 203 217 216 228 211 226 222 218 218 211 202 200 211 213 217 190 203 200 185 191 193 185
337 338 341 338 338 350 5 36 26 301 309 314 278 262 273 287 303 322 209 205 215 238 238 219 231 229 236 234 222 240 227 219 204 202 204 211 222 225 220 224 212 189 204 201 180
339 339 340 336 338 8 12 35 319 278 282 295 280 280 300 258 311 298 195 229 246 245 230 245 254 212 222 240 229 236 218 206 201 194 206 208 235 231 213 220 221 203 225 207 192
343 341 341 337 262 345 324 337 328 228 304 354 340 338 276 315 271 244 240 269 231 257 245 244 243 245 227 224 210 263 221 220 207 187 195 205 238 215 215 212 214 206 206 208 200
341 340 340 15 312 319 329 328 313 226 320 339 323 318 321 276 317 147 29 252 235 219 212 222 239 230 228 229 198 266 196 206 196 211 209 187 205 239 206 212 213 203 198 210 208
339 338 340 322 296 304 331 317 216 291 323 339 321 328 340 334 320 291 316 256 299 226 229 259 275 256 236 221 203 220 171 184 195 218 236 202 211 248 194 208 212 204 204 204 210
340 330 327 297 338 323 324 255 316 27 338 324 328 328 330 328 334 328 314 277 230 225 220 235 243 237 236 211 213 192 217 141 167 205 237 216 213 234 216 218 214 200 198 203 202
334 340 3 53 344 331 297 283 336 353 316 316 313 314 324 359 336 332 339 343 208 216 261 241 222 200 205 209 194 192 212 148 184 197 207 153 213 233 226 214 223 210 196 188 188
333 353 18 12 341 324 304 40 336 341 328 317 318 334 1 349 335 332 331 336 330 217 230 231 246 190 196 186 195 189 206 209 15 226 206 196 232 273 226 212 201 207 193 191 184
355 347 360 341 331 296 54 21 302 267 323 303 321 341 338 344 341 344 307 3 348 343 294 248 266 209 186 188 196 206 181 186 207 236 192 201 232 215 187 192 183 186 191 196 197
32 25 357 345 301 39 54 327 305 307 320 294 310 301 322 340 324 316 300 328 12 341 330 266 230 197 164 201 188 162 176 195 213 237 3 133 190 130 191 200 199 185 187 188 192
26 25 350 339 20 21 4 326 321 318 335 301 286 293 324 331 309 293 292 301 347 343 313 277 271 241 190 125 209 194 181 191 191 200 231 288 115 352 290 236 192 186 183 175 188
35 310 358 346 37 1 335 333 308 325 335 329 306 339 341 313 313 295 320 307 336 338 325 332 271 208 135 139 196 193 162 157 138 97 168 211 178 33 111 123 142 181 180 176 176
33 1 6 57 75 10 344 334 345 331 300 320 294 318 339 319 302 294 308 319 323 321 341 332 288 309 259 174 150 177 172 166 214 182 137 304 125 82 68 98 123 134 163 170 173
25 53 30 337 6 348 320 307 333 354 316 326 305 334 339 300 309 254 321 325 312 328 343 350 299 324 316 215 161 159 157 152 180 142 135 145 100 67 48 57 76 103 118 133 151
52 3 341 299 328 334 19 337 317 334 304 310 319 324 319 276 291 301 312 314 289 318 336 327 314 316 46 172 167 147 152 159 140 188 122 112 92 31 44 60 70 79 106 122 140
77 108 305 329 337 332 13 324 297 320 292 265 311 315 313 317 307 289 280 272 263 282 302 305 323 326 57 138 137 130 92 164 95 35 162 132 24 59 70 55 46 49 59 87 132